* Astronomy

Members Login
Post Info TOPIC: Proton Breeze M Tank re-entry


L

Posts: 131433
Date:
RE: Proton Breeze M Tank re-entry
Permalink  
 


Update
The Proton Breeze M Debris (Tank) is predicted to re-enter the Earths atmosphere on the 22nd March, 2011 @ 16:55 GMT  ± 48 hours.

TLE Data
BREEZE-M TANK 
1 32300U 07057B   11080.70058132  .00893783  33271-6  20423-3 0  9065
2 32300 048.5586 072.2876 3666519 294.8123 163.5701 08.34363117 28248

Period:       172.7 minutes
Inclination: 48.58°
Apogee:     7665 km
Perigee:     125 km
Revolution Number: 2838
Predicted Location:  23.7°S, 332.4°E

__________________


L

Posts: 131433
Date:
Permalink  
 

A Proton Breeze M Debris (Tank) that was launched on the 17th November, 2007, from the Baikonur Cosmodrome, Kazakhstan, for the SIRIUS 4 satellite mission is predicted to re-enter the Earths atmosphere on the 22nd March, 2011 @ 16:55 GMT  ± 48 hours.

TLE Data
BREEZE-M TANK
1 32300U 07057B 11078.66803708 .46164289 88843-5 43050-2 0 8991
2 32300 048.5570 075.5990 3705839 292.0701 191.9032 08.30114176 28073

Period:       187.82 minutes
Inclination: 48.60°
Apogee:     8884 km
Perigee:     88 km
Revolution Number: 2838
Predicted Location:  23.7°S, 332.4°E

__________________
Page 1 of 1  sorted by
 
Quick Reply

Please log in to post quick replies.



Create your own FREE Forum
Report Abuse
Powered by ActiveBoard